STARLINK-11266 [DTC] (60732 NORAD) Tracking and Keplerian Element Data

This shows tracking and keplerian element data for the satellite.

Feedback or suggestion? Click here.




ElementValue
Catalog60732
NameSTARLINK-11266 [DTC]
Epoch Orbit829
Epoch Day286.85637951
Epoch Year2024
RAAN123.9678
Inclination53.1578
Eccentricity0.0001824
Argument of Perigee126.9465
Mean Anonmoly233.172
Mean Motion15.69749357
Decay Rate0.00073759
L11 60732U 24152N 24286.85637951 .00073759 00000+0 60726-3 0 9992
L22 60732 53.1578 123.9678 0001824 126.9465 233.1720 15.69749357 8296



Live tracking and technical data element details for STARLINK-11266 [DTC] (NORAD 60732). STARLINK-11266 [DTC] can be tracked NOW for your location showing map with azimuth and elevation plus other details from your city location.







IsCatalogInMostPopularTable: catalog: 60732, numindb: 9
Update: records affected: 1



GetName: 60732 STARLINK-11266 [DTC]

Hit Count: updated at: Tue, 03 Dec 2024 03:25:27 GMT